Wind_Speed
14 16 15 13 13 9 8 4 9 12 10 10 11 16 18 15 9 12 15 13 8 10 9 14 22 32 21 33 32 39 32 30 33 43 46 48 47 45 48 51 53 54 56
17 16 16 13 11 9 5 14 13 11 6 13 16 21 22 16 12 17 15 16 27 26 19 24 28 25 29 33 34 39 35 34 35 42 45 48 55 57 55 58 57 58 58
20 19 17 15 12 10 18 14 11 4 5 14 20 26 24 24 27 26 22 30 32 34 26 42 32 34 28 35 40 40 39 41 43 48 55 57 56 62 62 62 64 64 64
23 22 20 18 15 15 20 11 9 4 11 15 20 22 28 40 41 43 38 40 38 38 35 41 40 41 38 41 44 42 45 47 54 66 67 68 71 71 72 72 68 67 69
23 23 22 20 19 22 25 20 14 11 16 20 29 33 32 34 36 45 45 46 47 46 43 41 41 42 39 42 41 43 48 56 63 72 79 72 73 76 75 72 66 67 65
21 24 24 26 28 30 26 20 15 11 17 37 33 41 38 43 37 41 44 47 51 46 44 47 52 37 47 47 48 49 55 64 72 79 81 73 71 66 63 63 62 62 62
21 26 28 33 32 33 24 21 23 18 16 38 25 53 54 47 43 42 42 48 50 50 51 53 42 52 51 48 49 59 68 69 79 83 80 72 69 64 59 55 56 57 58
26 24 33 33 35 35 27 23 22 23 40 50 57 39 46 47 46 44 47 51 54 54 49 53 56 56 57 57 62 73 73 83 87 79 76 71 65 62 62 62 65 62 59
24 27 36 34 35 31 30 24 38 43 49 50 36 41 46 41 46 50 46 52 56 52 58 61 63 62 63 66 72 77 86 88 80 78 72 66 66 67 69 68 62 62 61
29 31 26 42 37 33 31 18 56 59 52 41 49 55 59 61 64 63 54 53 58 63 65 63 63 68 69 71 78 84 86 84 76 74 67 67 73 73 70 69 62 56 50
34 37 33 35 44 39 37 40 46 50 56 50 50 48 47 54 62 56 54 56 61 63 64 67 70 67 70 81 84 83 81 74 73 69 67 70 73 71 69 66 54 44 39
36 42 37 38 44 50 41 43 40 47 46 48 51 50 51 57 59 59 58 60 62 62 66 66 68 72 81 83 78 85 80 75 71 70 71 73 71 69 60 49 44 37 36
40 42 40 40 49 57 55 41 42 40 41 48 53 54 58 60 58 62 66 68 70 70 74 71 73 81 83 80 79 77 73 71 69 70 72 71 69 63 49 37 32 32 35
46 45 45 47 50 50 61 59 54 45 41 45 49 52 54 59 59 61 64 66 69 74 75 76 75 79 72 74 77 69 65 66 69 69 68 69 65 56 39 31 28 31 34
51 49 46 46 48 51 60 64 60 55 51 52 52 55 58 58 63 62 63 68 72 76 70 76 68 71 71 66 61 61 61 66 65 65 65 62 59 48 36 29 29 32 35
51 48 50 52 48 50 56 61 63 59 61 59 59 58 65 64 67 70 72 75 74 68 67 71 75 72 63 62 61 59 61 64 65 63 61 60 56 44 35 31 31 32 35
50 52 52 52 53 48 52 56 56 65 62 59 60 63 64 64 65 70 72 71 61 58 65 65 60 55 53 56 57 57 62 63 65 62 57 62 51 41 35 32 33 34 36
54 51 51 50 51 49 46 48 52 57 57 54 58 59 60 64 61 60 68 70 67 57 49 51 51 48 55 52 56 61 64 62 63 61 57 64 51 40 35 32 32 35 37
56 53 52 51 47 43 43 44 50 49 51 54 55 59 57 56 61 66 54 53 51 51 52 49 47 50 51 57 61 65 61 62 63 62 60 63 54 41 37 34 33 34 37
54 53 51 49 39 43 45 42 49 51 49 51 50 50 53 54 56 53 51 48 48 52 48 46 49 47 56 61 66 62 62 63 65 61 60 63 60 42 37 33 32 33 36
55 55 51 51 44 49 51 47 51 53 51 50 51 51 48 55 52 48 50 47 49 45 41 45 45 52 58 66 60 58 61 64 63 61 65 66 59 42 36 33 30 30 33
49 53 56 56 53 49 49 53 53 51 50 48 48 46 53 53 46 42 41 40 41 41 42 44 49 53 62 56 55 59 61 65 62 65 68 67 55 41 36 32 27 28 31
41 44 49 52 52 50 46 48 53 52 46 42 43 49 52 41 35 36 36 37 41 36 41 46 51 58 55 56 58 63 65 64 66 69 68 62 48 38 35 31 26 27 29
34 36 37 34 36 39 38 43 43 44 42 44 47 44 34 30 31 32 35 33 34 38 42 54 57 54 53 56 61 65 66 69 70 67 61 51 40 37 36 31 26 26 28
29 32 34 35 36 37 39 40 38 38 42 38 27 22 22 21 27 30 32 33 36 41 53 56 51 52 55 58 62 65 68 68 66 59 53 46 41 39 36 30 24 23 26
20 22 25 27 31 34 35 32 33 30 26 20 18 18 21 26 31 30 34 36 42 50 48 49 48 52 56 59 63 66 69 66 59 53 49 47 44 39 33 27 21 18 23
Wind_Direction
261 271 264 258 254 251 254 194 132 118 105 69 33 38 34 27 31 30 7 10 324 259 298 315 308 322 307 325 315 323 310 306 304 290 301 300 304 297 289 287 284 276 272
251 256 259 261 254 242 191 156 157 135 81 26 11 0 355 5 16 335 335 347 338 316 304 317 326 330 319 317 307 314 321 325 308 317 311 302 292 289 289 285 284 282 278
241 248 251 250 234 211 176 184 178 192 328 347 348 344 333 335 319 336 312 325 335 343 305 310 324 324 303 307 316 328 328 326 325 318 315 305 295 287 289 286 282 280 279
245 243 241 246 228 202 193 196 194 289 305 315 321 317 319 325 324 323 328 323 326 326 317 322 325 325 322 317 316 319 328 328 329 329 320 312 299 299 296 291 286 282 281
244 244 245 249 233 213 213 215 236 260 292 317 325 326 322 316 316 318 314 321 317 317 316 319 317 316 318 316 314 328 328 330 329 326 322 313 302 297 294 292 288 285 284
234 239 240 239 226 224 222 218 239 275 303 311 312 316 313 308 307 307 311 307 307 308 310 312 316 313 322 326 330 325 326 329 327 323 322 311 302 300 298 297 293 287 285
233 236 232 237 233 230 219 223 228 276 289 258 273 281 289 296 301 300 301 303 303 304 307 309 318 322 326 326 324 326 326 322 323 318 321 311 306 305 302 298 294 291 289
233 235 232 236 235 230 220 229 228 247 275 286 247 261 267 296 295 294 298 299 299 306 304 312 319 320 322 320 320 320 321 323 322 319 316 310 308 310 308 303 300 294 292
246 231 231 233 235 234 233 241 262 260 279 271 257 269 264 286 286 288 290 294 300 305 308 311 315 317 317 319 320 322 325 324 320 316 315 310 310 310 308 306 302 297 292
240 229 232 234 230 226 230 253 258 269 269 272 282 274 275 275 280 289 293 295 300 301 306 309 312 314 315 319 320 322 321 324 319 316 312 311 313 312 310 307 303 298 294
254 232 228 230 229 216 219 241 248 256 277 275 280 275 273 269 285 291 294 298 302 305 308 309 311 315 317 317 318 323 320 317 319 315 312 312 312 312 311 306 301 298 294
256 238 240 233 231 217 231 245 255 261 273 275 272 275 276 279 283 288 293 298 302 305 310 313 311 314 316 317 320 321 319 317 318 319 317 316 317 315 310 304 302 300 298
260 240 248 239 230 226 229 248 254 270 276 276 277 282 285 289 289 291 293 297 300 306 308 310 309 314 315 318 320 319 315 317 317 317 319 319 319 316 311 301 292 295 299
257 259 255 235 230 241 236 246 259 266 277 275 276 279 286 290 292 292 296 300 303 306 306 307 312 315 312 315 316 313 316 318 318 321 321 322 320 318 309 297 298 299 304
255 254 249 247 252 252 247 250 251 260 277 275 274 277 279 284 288 291 294 295 299 303 306 308 313 315 313 312 313 314 316 317 322 324 324 325 324 319 309 299 299 305 314
251 251 248 255 256 253 252 255 255 268 275 281 279 276 277 282 287 289 293 297 302 308 310 312 314 312 312 313 314 315 319 322 326 326 324 330 326 319 309 299 300 309 315
249 249 254 254 257 260 256 260 265 270 277 282 281 282 288 288 291 292 298 307 315 313 312 311 310 309 312 312 315 316 324 326 327 325 327 334 327 318 309 299 298 306 309
254 252 255 255 257 259 260 268 268 273 276 281 285 289 290 291 299 303 305 310 313 313 309 311 311 311 312 317 320 322 325 326 326 326 330 335 332 321 311 300 297 300 307
254 253 255 255 255 255 257 261 269 275 278 281 288 289 294 303 305 306 311 313 312 309 310 309 310 314 318 321 322 323 325 327 327 328 331 336 335 323 314 303 298 299 305
253 254 257 256 253 258 264 262 272 272 273 282 296 299 301 303 305 309 314 311 312 312 311 312 311 319 320 321 322 324 326 326 326 326 330 334 335 324 316 307 299 297 303
252 254 257 258 256 260 265 264 270 276 278 288 294 299 300 304 309 310 310 309 310 308 306 308 318 319 318 321 322 324 325 325 325 326 328 331 334 325 319 312 304 300 307
256 252 254 260 263 267 273 275 278 277 281 288 290 295 303 308 307 305 307 304 305 307 309 318 315 313 320 318 321 325 324 324 324 324 326 328 329 325 323 317 309 304 309
260 259 258 260 266 272 271 271 272 274 277 286 296 298 304 303 305 305 301 297 306 311 315 313 311 317 315 318 324 325 325 322 321 321 323 327 325 325 326 320 311 307 312
265 268 269 266 264 264 255 261 266 274 280 289 296 296 294 298 303 303 302 307 312 315 312 313 313 314 316 322 323 322 321 319 319 322 325 325 323 323 325 321 313 311 314
258 257 256 256 257 257 262 270 275 279 281 285 286 289 289 304 316 313 316 317 320 308 311 312 311 314 321 321 320 319 319 320 321 321 322 322 319 318 321 318 311 313 316
263 273 270 264 262 265 264 265 265 266 274 271 294 317 312 304 303 310 323 318 305 309 312 312 315 319 318 318 319 318 319 320 319 319 319 319 316 316 316 311 308 309 320
Height
10947 10947 10946 10946 10946 10946 10946 10946 10947 10947 10949 10950 10950 10949 10947 10946 10945 10944 10943 10944 10944 10944 10944 10943 10940 10936 10932 10929 10924 10921 10917 10913 10908 10903 10899 10894 10889 10885 10880 10877 10874 10871 10868
10942 10943 10942 10942 10943 10943 10944 10945 10945 10946 10947 10948 10948 10948 10947 10947 10945 10946 10944 10943 10943 10940 10937 10935 10932 10929 10926 10921 10917 10912 10906 10901 10897 10893 10888 10882 10874 10869 10865 10861 10858 10854 10851
10937 10938 10938 10938 10939 10940 10941 10943 10945 10946 10946 10945 10945 10945 10943 10942 10940 10942 10943 10937 10935 10932 10931 10926 10922 10916 10912 10910 10905 10900 10895 10890 10887 10882 10873 10863 10857 10850 10846 10841 10838 10835 10834
10932 10933 10934 10935 10937 10938 10940 10942 10943 10943 10943 10941 10940 10937 10937 10937 10937 10932 10930 10928 10925 10922 10918 10915 10909 10905 10900 10895 10892 10888 10880 10874 10869 10860 10852 10845 10837 10830 10824 10819 10815 10812 10808
10929 10930 10932 10934 10935 10936 10936 10938 10936 10938 10938 10937 10937 10934 10931 10926 10920 10924 10919 10918 10915 10912 10910 10905 10901 10897 10891 10885 10880 10869 10866 10858 10852 10845 10837 10828 10818 10811 10804 10795 10789 10785 10783
10925 10926 10928 10928 10929 10928 10930 10932 10933 10932 10933 10924 10928 10926 10921 10918 10916 10910 10911 10907 10905 10904 10900 10897 10892 10884 10878 10870 10862 10857 10852 10843 10835 10827 10818 10807 10798 10790 10782 10775 10769 10765 10762
10919 10919 10919 10921 10923 10925 10928 10926 10926 10925 10924 10911 10919 10917 10909 10908 10907 10901 10900 10898 10894 10892 10887 10883 10876 10869 10862 10855 10849 10842 10836 10831 10825 10811 10800 10784 10773 10765 10760 10755 10748 10744 10740
10908 10910 10912 10915 10916 10919 10922 10920 10921 10918 10909 10911 10899 10906 10899 10897 10895 10891 10889 10882 10878 10879 10874 10868 10862 10856 10848 10844 10840 10832 10824 10813 10800 10787 10774 10764 10755 10747 10739 10732 10726 10719 10715
10896 10900 10903 10905 10910 10914 10916 10921 10922 10907 10899 10896 10894 10895 10891 10888 10883 10879 10875 10872 10866 10864 10861 10855 10851 10845 10839 10833 10825 10813 10802 10789 10777 10764 10755 10744 10734 10725 10717 10709 10701 10694 10689
10885 10889 10892 10895 10897 10904 10909 10905 10908 10896 10892 10889 10884 10884 10883 10879 10873 10869 10862 10858 10856 10857 10851 10844 10839 10833 10825 10816 10806 10797 10785 10770 10759 10748 10738 10726 10713 10704 10695 10685 10678 10672 10665
10876 10877 10879 10885 10887 10891 10884 10876 10877 10882 10879 10876 10874 10873 10870 10869 10861 10853 10848 10847 10845 10843 10838 10830 10823 10816 10808 10799 10788 10776 10764 10754 10744 10734 10725 10714 10700 10687 10676 10664 10659 10653 10648
10863 10866 10872 10873 10876 10876 10872 10869 10870 10869 10866 10863 10861 10859 10858 10855 10848 10845 10840 10836 10834 10829 10823 10817 10811 10803 10794 10782 10769 10758 10746 10735 10725 10714 10703 10694 10682 10671 10662 10649 10640 10636 10635
10850 10853 10855 10858 10861 10861 10862 10864 10865 10860 10855 10853 10850 10848 10843 10841 10838 10834 10830 10826 10821 10815 10810 10803 10797 10788 10776 10763 10752 10742 10731 10718 10707 10695 10684 10675 10665 10655 10646 10639 10633 10630 10626
10838 10840 10841 10845 10847 10848 10849 10849 10848 10847 10843 10840 10840 10837 10832 10829 10825 10820 10816 10811 10806 10801 10794 10789 10780 10770 10761 10750 10738 10728 10716 10704 10693 10683 10671 10660 10649 10641 10633 10628 10623 10619 10615
10822 10825 10828 10831 10833 10834 10834 10832 10833 10833 10831 10829 10829 10826 10822 10816 10814 10810 10803 10798 10793 10787 10781 10774 10764 10755 10746 10735 10724 10715 10705 10697 10684 10670 10659 10647 10636 10628 10621 10618 10613 10609 10603
10808 10810 10814 10815 10817 10819 10820 10820 10820 10819 10815 10814 10813 10810 10806 10804 10800 10793 10792 10786 10780 10773 10766 10758 10751 10742 10732 10725 10714 10706 10695 10684 10670 10660 10649 10637 10626 10616 10610 10607 10603 10598 10593
10794 10798 10801 10803 10804 10806 10807 10808 10808 10806 10803 10799 10797 10795 10794 10791 10787 10780 10778 10773 10766 10760 10752 10745 10737 10728 10719 10711 10704 10693 10681 10671 10659 10651 10639 10628 10615 10605 10599 10596 10592 10587 10582
10780 10785 10786 10789 10790 10792 10794 10795 10794 10794 10790 10787 10785 10783 10781 10777 10772 10767 10763 10757 10753 10744 10738 10731 10725 10718 10711 10702 10692 10681 10669 10659 10650 10639 10629 10618 10604 10595 10590 10586 10582 10578 10573
10767 10772 10773 10774 10777 10781 10785 10784 10782 10781 10778 10776 10774 10770 10768 10765 10760 10756 10748 10745 10742 10735 10727 10720 10715 10707 10699 10691 10681 10669 10658 10648 10640 10629 10618 10607 10595 10586 10580 10576 10572 10568 10564
10755 10761 10763 10764 10769 10770 10771 10773 10770 10768 10766 10765 10763 10761 10759 10753 10749 10744 10738 10734 10729 10725 10720 10713 10706 10698 10689 10680 10669 10658 10647 10638 10629 10620 10609 10598 10588 10578 10571 10566 10562 10558 10554
10743 10747 10750 10751 10757 10759 10761 10762 10761 10760 10758 10757 10754 10751 10748 10743 10737 10731 10728 10726 10721 10715 10711 10704 10696 10688 10678 10668 10658 10648 10638 10628 10618 10609 10599 10589 10578 10569 10562 10556 10552 10549 10545
10730 10735 10739 10741 10746 10750 10752 10751 10749 10748 10749 10748 10744 10739 10737 10732 10726 10724 10720 10716 10712 10707 10701 10694 10687 10677 10668 10658 10649 10639 10628 10618 10608 10598 10588 10579 10569 10560 10554 10548 10544 10541 10536
10719 10723 10728 10732 10736 10738 10741 10740 10737 10738 10738 10737 10734 10730 10727 10724 10720 10716 10712 10709 10704 10698 10693 10685 10676 10667 10658 10648 10638 10628 10618 10608 10598 10587 10577 10569 10561 10553 10547 10541 10537 10534 10529
10711 10712 10715 10718 10721 10723 10725 10723 10727 10727 10727 10726 10724 10722 10720 10716 10713 10710 10706 10701 10696 10690 10682 10674 10666 10658 10648 10638 10628 10617 10608 10597 10586 10575 10567 10559 10552 10546 10540 10535 10531 10527 10523
10701 10703 10705 10708 10710 10710 10712 10715 10716 10716 10716 10716 10715 10714 10712 10709 10707 10704 10699 10692 10686 10680 10672 10666 10657 10648 10637 10627 10617 10607 10596 10585 10574 10564 10557 10550 10544 10539 10533 10529 10525 10522 10518
10693 10695 10696 10698 10698 10699 10701 10705 10705 10705 10707 10708 10708 10708 10707 10704 10701 10696 10690 10685 10679 10672 10664 10656 10647 10637 10627 10617 10606 10595 10584 10573 10563 10554 10547 10540 10535 10530 10526 10522 10520 10518 10515